COSMOS 1045

Satellite information

Favourite Embed

Satellite Type and Status

PAYLOADIN ORBIT

Key statistics

Satellite COSMOS 1045 at a glance.

Uptime

17165

Days in orbit

Revolutions

≈ 12.0

Per day

Orbit

LEO

Low Earth Orbit

Inclination

82.6

Latest

Satellite identification and parameters

Extended collection of information and parameters for COSMOS 1045.

Object identification

Identified? True

Debris? False

Object name: COSMOS 1045

International designator: 1978-100A

Object number (NORAD): 11084

Object ID (CCSDS): 11084

Country: COMMONWEALTH OF INDEPENDENT STATES (CIS)

Current information (Y/N): Y

RCS size: LARGE

Orbital parameters

Period: 120.324 minutes

Inclination: 82.5512 deg

SMA: 8073.495 km

Apoapsis: 1706.027 km

Periapsis: 1684.692 km

RAAN: 175.8634 deg

Eccentricy: 0.0013213

Argument of periapsis: 80.7289 deg

Mean anomaly: 333.8607 deg

Mean motion: 11.96769224 rev/day

Mean motion (dot): 0.00000009 rev/day2

B* drag term: 0.000009501261 1/REarth

Two-line elements (TLE)

Creation date: Oct. 24, 2025, 2:48 a.m.

Reference frame: TEME

Reference center: EARTH

Epoch: Oct. 23, 2025, 4:32 p.m. UTC

TLE line 0: 0 COSMOS 1045

TLE line 1: 1 11084U 78100A 25296.68903288 .00000009 00000-0 95013-5 0 9990

TLE line 2: 2 11084 82.5512 175.8634 0013213 80.7289 333.8607 11.96769224 52977

Live tracking on map

Real-time ground track for satellite COSMOS 1045.

In-orbit conjunctions

A list of the most updated potential collisions computed for object COSMOS 1045.

Target Orbit TCA Probability of collision Miss distance Type
RADIO 2 LEO 2025-07-22 19:42:04 0.0002050582 320.0 (m) PAYLOAD
RADIO 2 LEO 2025-07-22 17:41:42 0.0001684747 375.0 (m) PAYLOAD

Associated space launch

Mass model of the Meteor-2 meteorological satellite

COSMOS 1045 was lifted into orbit during the mission ‘Tsiklon-3 | Meteor-2-GVM’, on board a Tsiklon-3 space rocket.

The launch took place on Oct. 26, 1978, 7 a.m. from 32/2.

For more information about the launch, click the button.

Launch to space Tsiklon-3 | Meteor-2-GVM
Tsiklon-3 | Meteor-2-GVM

Agency: N/A

Status: Launch Successful

Launch date: Oct. 26, 1978, 7 a.m. UTC

Rocket: Tsiklon-3

Launch pad: 32/2

Location: Plesetsk Cosmodrome, Russian Federation

...

Latest news about this satellite

There are no fresh news available about this satellite. Check back as we update our databases every day.


Newsletter sign-up

Weekly statistics, charts and insights to help you stay on top of the space industry.